Weather History for Marshalltown, IA

Change the Weather History Date:

Sunday, March 17, 2013

  Actual Average Record
Temperature  
Mean Temperature 29 °F 37 °F  
Max Temperature 37 °F 47 °F 83 °F (2012)
Min Temperature 20 °F 27 °F 12 °F (2001)
Degree Days  
Heating Degree Days 36 28  
Month to date heating degree days 660 548  
Since 1 July heating degree days 5664 5951  
Cooling Degree Days 0 0  
Month to date cooling degree days 0 0  
Year to date cooling degree days 0 0  
Moisture  
Dew Point 22 °F    
Average Humidity 69    
Maximum Humidity 81    
Minimum Humidity 56    
Precipitation  
Precipitation T in 0.06 in 0.34 in (1998)
Month to date precipitation 1.43 0.91  
Sea Level Pressure  
Sea Level Pressure 30.03 in    
Wind  
Wind Speed 15 mph (ESE)    
Max Wind Speed 23 mph    
Max Gust Speed 29 mph    
Visibility 10 miles    
Events      
T = Trace of Precipitation, MM = Missing Value Source: NWS Daily Summary

Daily Weather History Graph

Daily Weather History Graph

Search for Another Location

Airport:

Trip Planner

Search our weather history database for the weather conditions in past years. The results will help you decide how hot, cold, wet, or windy it might be!

Date:

Astronomy

Mar. 17, 2013 Rise Set
Actual Time 7:19 AM CDT 7:20 PM CDT
Civil Twilight 6:51 AM CDT 7:48 PM CDT
Nautical Twilight 6:19 AM CDT 8:21 PM CDT
Astronomical Twilight 5:46 AM CDT 8:54 PM CDT
Moon 10:27 AM CDT 12:34 AM CDT
Length of Visible Light 12h 56m
Length of Day
12h 01m
Waxing Crescent, 31% of the Moon is Illuminated
Mar 17
Waxing Crescent
Mar 19
First Quarter
Mar 27
Full
Apr 2
Last Quarter
Apr 10
New

Hourly Weather History & Observations

Time (CDT) Temp. Windchill Dew Point Humidity Pressure Visibility Wind Dir Wind Speed Gust Speed Precip Events Conditions
12:53 AM 24.1 °F 13.1 °F 18.0 °F 77% 30.22 in 10.0 mi North 11.5 mph - N/A   Clear
1:53 AM 24.1 °F 12.0 °F 18.0 °F 77% 30.21 in 10.0 mi North 13.8 mph - N/A   Clear
2:53 AM 23.0 °F 10.6 °F 18.0 °F 81% 30.19 in 10.0 mi North 13.8 mph - N/A   Scattered Clouds
3:53 AM 21.9 °F 9.2 °F 16.0 °F 78% 30.17 in 10.0 mi NNE 13.8 mph - N/A   Clear
4:53 AM 21.0 °F 6.6 °F 15.1 °F 78% 30.16 in 10.0 mi NNE 17.3 mph - N/A   Clear
5:53 AM 19.9 °F 6.2 °F 14.0 °F 78% 30.17 in 10.0 mi NE 15.0 mph - N/A   Clear
6:53 AM 19.9 °F 7.9 °F 14.0 °F 78% 30.18 in 10.0 mi ENE 11.5 mph - N/A   Clear
7:53 AM 19.9 °F 9.3 °F 14.0 °F 78% 30.19 in 10.0 mi ENE 9.2 mph - N/A   Clear
8:53 AM 23.0 °F 11.1 °F 15.1 °F 72% 30.20 in 10.0 mi ENE 12.7 mph - N/A   Clear
9:53 AM 26.1 °F 14.5 °F 18.0 °F 71% 30.18 in 10.0 mi ESE 13.8 mph - N/A   Scattered Clouds
10:53 AM 28.0 °F 17.0 °F 19.0 °F 69% 30.17 in 10.0 mi East 13.8 mph - N/A   Partly Cloudy
11:53 AM 30.0 °F 19.5 °F 19.9 °F 66% 30.14 in 10.0 mi ESE 13.8 mph - N/A   Partly Cloudy
12:53 PM 32.0 °F 24.8 °F 21.0 °F 64% 30.10 in 10.0 mi ESE 8.1 mph - N/A   Clear
1:53 PM 34.0 °F 25.0 °F 21.9 °F 61% 30.06 in 10.0 mi ESE 12.7 mph - N/A   Clear
2:53 PM 35.1 °F 27.4 °F 21.9 °F 59% 30.03 in 10.0 mi SE 10.4 mph 18.4 mph N/A   Clear
3:53 PM 37.0 °F 27.0 °F 25.0 °F 62% 29.97 in 10.0 mi ESE 18.4 mph - N/A   Clear
4:53 PM 36.0 °F 25.0 °F 25.0 °F 64% 29.96 in 10.0 mi SE 20.7 mph - N/A   Clear
5:53 PM 36.0 °F 25.0 °F 26.1 °F 67% 29.95 in 10.0 mi SE 20.7 mph - N/A   Partly Cloudy
6:18 PM 35.6 °F 26.6 °F 26.6 °F 70% 29.91 in 10.0 mi SE 13.8 mph - N/A   Mostly Cloudy
6:25 PM 35.6 °F 24.2 °F 26.6 °F 70% 29.91 in 10.0 mi ESE 21.9 mph 26.5 mph N/A   Scattered Clouds
6:35 PM 33.8 °F 22.5 °F 24.8 °F 70% 29.91 in 10.0 mi ESE 19.6 mph - N/A   Mostly Cloudy
6:53 PM 33.1 °F 21.5 °F 25.0 °F 72% 29.94 in 10.0 mi ESE 19.6 mph - N/A   Mostly Cloudy
7:31 PM 33.8 °F 23.2 °F 24.8 °F 70% 29.89 in 10.0 mi ESE 17.3 mph - N/A   Scattered Clouds
7:53 PM 32.0 °F 21.6 °F 25.0 °F 75% 29.92 in 10.0 mi SE 15.0 mph 23.0 mph N/A   Scattered Clouds
8:42 PM 32.0 °F 22.5 °F 26.6 °F 80% 29.89 in 10.0 mi SE 12.7 mph - N/A   Mostly Cloudy
8:53 PM 32.0 °F 21.2 °F 25.0 °F 75% 29.93 in 10.0 mi SE 16.1 mph - N/A   Mostly Cloudy
9:18 PM 30.2 °F 18.9 °F 24.8 °F 80% 29.89 in 10.0 mi ESE 16.1 mph 24.2 mph N/A   Scattered Clouds
9:53 PM 30.9 °F 19.4 °F 25.0 °F 79% 29.92 in 10.0 mi ESE 17.3 mph - N/A   Scattered Clouds
10:53 PM 32.0 °F 21.2 °F 26.1 °F 79% 29.91 in 10.0 mi ESE 16.1 mph 24.2 mph N/A   Overcast
11:51 PM 32.0 °F 21.6 °F 26.6 °F 80% 29.85 in 10.0 mi ESE 15.0 mph - N/A   Overcast
11:53 PM 32.0 °F 21.2 °F 26.1 °F 79% 29.88 in 10.0 mi SE 16.1 mph - N/A   Overcast